EW3994 Weather Reports


Display with metric or nautical units.
time (UTC)temp
F
wind
direction
speed
MPH
gust
MPH
rain 1hr
in
rain 24hr
in
rain mn
in
humidity
%
barometer
mb
20260902222145 54 344 3.0 6.0 0.00 0.00 0.00 64 1016.9
20260902221246 54 341 2.0 5.0 0.00 0.00 0.00 63 1016.8
20260902220345 55 351 3.0 6.0 0.00 0.00 0.00 63 1016.6
20260902215445 56 302 4.0 9.0 0.00 0.00 0.00 63 1016.6
20260902212745 55 296 5.0 11.0 0.00 0.00 0.00 64 1016.3
20260902211845 55 297 5.0 10.0 0.00 0.00 0.00 64 1016.3
20260902210944 55 292 5.0 12.0 0.00 0.00 0.00 64 1016.0
20260902210044 55 298 7.0 12.0 0.00 0.00 0.00 64 1016.0
20260902205145 55 291 6.0 13.0 0.00 0.00 0.00 64 1016.0
20260902204245 55 299 6.0 11.0 0.00 0.00 0.00 64 1015.8
20260902202444 55 295 8.0 14.0 0.00 0.00 0.00 64 1015.7
20260902200644 55 291 8.0 17.0 0.00 0.00 0.00 63 1015.6
20260902195745 55 297 7.0 13.0 0.00 0.00 0.00 63 1015.4
20260902194846 55 291 7.0 12.0 0.00 0.00 0.00 63 1015.4
20260902193944 55 291 7.0 14.0 0.00 0.00 0.00 63 1015.2
20260902193044 55 288 8.0 13.0 0.00 0.00 0.00 62 1015.2
20260902192144 55 284 7.0 13.0 0.00 0.00 0.00 62 1015.1
20260902191244 55 289 7.0 14.0 0.00 0.00 0.00 62 1015.0
20260902190344 55 298 7.0 13.0 0.00 0.00 0.00 62 1014.9
20260902184544 55 283 7.0 14.0 0.00 0.00 0.00 61 1014.8
20260902183644 56 285 8.0 13.0 0.00 0.00 0.00 61 1014.8
20260902181844 56 289 9.0 15.0 0.00 0.00 0.00 60 1014.8
20260902180044 56 290 10.0 16.0 0.00 0.00 0.00 60 1014.7
20260902175147 56 288 8.0 16.0 0.00 0.00 0.00 60 1014.8
20260902174244 56 288 9.0 14.0 0.00 0.00 0.00 59 1014.7
20260902173344 55 294 8.0 14.0 0.00 0.00 0.00 59 1014.8
20260902172444 56 288 8.0 15.0 0.00 0.00 0.00 58 1014.8
20260902171544 56 288 7.0 14.0 0.00 0.00 0.00 58 1014.9
20260902170644 56 289 7.0 14.0 0.00 0.00 0.00 57 1014.9
20260902165744 56 295 8.0 15.0 0.00 0.00 0.00 57 1015.0
20260902163944 55 287 8.0 15.0 0.00 0.00 0.00 56 1015.1
20260902163044 55 290 8.0 12.0 0.00 0.00 0.00 56 1015.2
20260902162144 55 287 9.0 14.0 0.00 0.00 0.00 57 1015.2
20260902161244 55 283 8.0 15.0 0.00 0.00 0.00 57 1015.3
20260902160344 55 285 5.0 10.0 0.00 0.00 0.00 57 1015.4
20260902154544 55 282 8.0 14.0 0.00 0.00 0.00 56 1015.4
20260902153644 55 282 11.0 24.0 0.00 0.00 0.00 56 1015.3
20260902151844 55 284 11.0 20.0 0.00 0.00 0.00 57 1015.6
20260902150043 55 294 8.0 15.0 0.00 0.00 0.00 58 1015.5
20260902145144 55 293 7.0 15.0 0.00 0.00 0.00 58 1015.4
20260902142444 54 279 7.0 12.0 0.00 0.00 0.00 59 1015.6
20260902141543 54 275 7.0 15.0 0.00 0.00 0.00 59 1015.6
20260902140644 54 275 8.0 15.0 0.00 0.00 0.00 59 1015.7
20260902135744 54 274 8.0 14.0 0.00 0.00 0.00 60 1015.7
20260902134843 54 273 8.0 12.0 0.00 0.00 0.00 60 1015.8
20260902133945 54 277 7.0 10.0 0.00 0.00 0.00 60 1015.9
20260902133043 54 278 7.0 11.0 0.00 0.00 0.00 61 1015.8
20260902132144 54 279 7.0 13.0 0.00 0.00 0.00 61 1015.9
20260902131243 54 277 6.0 12.0 0.00 0.00 0.00 61 1016.0
20260902130343 54 276 5.0 11.0 0.00 0.00 0.00 60 1015.9
20260902125444 54 286 3.0 7.0 0.00 0.00 0.00 60 1015.9
20260902124544 54 281 3.0 6.0 0.00 0.00 0.00 60 1016.0
20260902123644 54 282 3.0 7.0 0.00 0.00 0.00 60 1016.1
20260902121843 54 284 2.0 4.0 0.00 0.00 0.00 58 1016.2
20260902120943 54 284 3.0 6.0 0.00 0.00 0.00 58 1016.2
20260902120043 54 281 2.0 6.0 0.00 0.00 0.00 58 1016.3
20260902115143 54 270 3.0 5.0 0.00 0.00 0.00 57 1016.2
20260902114243 55 257 3.0 7.0 0.00 0.00 0.00 57 1016.0
20260902113343 55 244 4.0 8.0 0.00 0.00 0.00 57 1015.9
20260902112443 55 243 8.0 16.0 0.00 0.00 0.00 57 1016.0
20260902111543 55 265 3.0 8.0 0.00 0.00 0.00 56 1015.9
20260902110644 55 281 5.0 10.0 0.00 0.00 0.00 56 1015.8
20260902104843 56 270 5.0 10.0 0.00 0.00 0.00 55 1015.7
20260902103943 56 264 7.0 13.0 0.00 0.00 0.00 54 1015.7
20260902103043 56 268 11.0 19.0 0.00 0.00 0.00 54 1015.6
20260902102143 56 286 10.0 19.0 0.00 0.00 0.00 52 1015.3
20260902101243 56 288 7.0 13.0 0.00 0.00 0.00 52 1015.3
20260902100343 56 291 6.0 11.0 0.00 0.00 0.00 51 1015.3
20260902095443 56 294 6.0 11.0 0.00 0.00 0.00 50 1015.2
20260902094545 56 290 5.0 10.0 0.00 0.00 0.00 49 1015.1
20260902093644 56 280 6.0 13.0 0.00 0.00 0.00 48 1015.0
20260902092743 56 281 7.0 12.0 0.00 0.00 0.00 50 1014.9
20260902091843 56 278 6.0 11.0 0.00 0.00 0.00 50 1014.8
20260902090943 56 282 5.0 10.0 0.00 0.00 0.00 52 1014.7
20260902085143 56 280 7.0 13.0 0.00 0.00 0.00 51 1014.7
20260902084243 56 281 7.0 12.0 0.00 0.00 0.00 51 1014.7
20260902083343 56 281 7.0 13.0 0.00 0.00 0.00 50 1014.5
20260902082443 56 283 7.0 12.0 0.00 0.00 0.00 50 1014.4
20260902081543 56 288 7.0 13.0 0.00 0.00 0.00 51 1014.3
20260902080644 56 288 7.0 14.0 0.00 0.00 0.00 51 1014.3
20260902075743 57 283 8.0 14.0 0.00 0.00 0.00 50 1014.3
20260902074843 57 291 7.0 14.0 0.00 0.00 0.00 50 1014.3
20260902073042 57 296 6.0 10.0 0.00 0.00 0.00 51 1014.2
20260902071242 57 296 6.0 10.0 0.00 0.00 0.00 51 1014.4
20260902070343 58 294 5.0 9.0 0.00 0.01 0.00 51 1014.4
20260902065443 58 293 5.0 12.0 0.00 0.02 0.00 50 1014.4
20260902064543 58 291 4.0 9.0 0.00 0.03 0.00 51 1014.3
20260902063646 58 272 6.0 13.0 0.00 0.04 0.00 50 1014.4
20260902062743 58 273 4.0 13.0 0.00 0.06 0.00 50 1014.3
20260902061843 58 270 6.0 12.0 0.00 0.06 0.00 49 1014.4
20260902060043 58 285 5.0 9.0 0.00 0.09 0.00 48 1014.4
20260902055142 59 273 5.0 9.0 0.00 0.09 0.00 49 1014.4
20260902054242 60 267 5.0 11.0 0.00 0.09 0.00 48 1014.4
20260902052442 59 273 5.0 11.0 0.00 0.09 0.00 46 1014.5
20260902050642 60 283 4.0 10.0 0.00 0.09 0.00 46 1014.6
20260902045742 60 261 4.0 10.0 0.00 0.09 0.00 46 1014.6
20260902044842 60 264 4.0 10.0 0.00 0.09 0.00 46 1014.7
20260902043944 60 257 7.0 11.0 0.00 0.09 0.00 46 1014.7
20260902043042 60 256 7.0 12.0 0.00 0.09 0.00 45 1014.7
20260902042142 61 255 8.0 14.0 0.00 0.09 0.00 46 1014.7
20260902041243 61 273 6.0 13.0 0.00 0.09 0.00 45 1014.8
20260902040342 63 254 5.0 10.0 0.00 0.09 0.00 45 1014.9
20260902035442 60 274 6.0 11.0 0.00 0.09 0.00 47 1015.1
20260902034542 60 273 6.0 12.0 0.00 0.09 0.00 48 1015.2
20260902032742 60 270 6.0 13.0 0.00 0.09 0.00 48 1015.3
20260902031842 60 272 8.0 14.0 0.00 0.09 0.00 48 1015.4
20260902030042 61 278 8.0 12.0 0.00 0.09 0.00 47 1015.6
20260902025142 60 270 6.0 12.0 0.00 0.09 0.00 51 1015.7
20260902024242 59 252 7.0 13.0 0.00 0.09 0.00 51 1015.8
20260902023342 60 248 6.0 11.0 0.00 0.09 0.00 52 1015.9
20260902022442 59 260 8.0 12.0 0.00 0.09 0.00 52 1015.9
20260902021542 60 257 5.0 11.0 0.00 0.09 0.00 51 1016.0
20260902020642 60 256 7.0 12.0 0.00 0.09 0.00 51 1016.1
20260902015742 60 262 7.0 13.0 0.00 0.09 0.00 51 1016.2
20260902014842 61 260 6.0 13.0 0.00 0.09 0.00 48 1016.3
20260902013942 60 257 6.0 11.0 0.00 0.09 0.00 49 1016.3
20260902013042 62 269 7.0 11.0 0.00 0.09 0.00 46 1016.5
20260902012142 61 271 7.0 14.0 0.00 0.09 0.00 49 1016.6
20260902011242 64 281 7.0 13.0 0.00 0.09 0.00 49 1016.8
20260902010342 59 275 6.0 13.0 0.00 0.09 0.00 54 1016.8
20260902005442 58 270 7.0 13.0 0.00 0.09 0.00 54 1016.9
20260902004542 59 285 6.0 11.0 0.00 0.09 0.00 52 1017.0
20260902003642 58 280 6.0 11.0 0.00 0.09 0.00 57 1017.0
20260902002742 58 280 6.0 10.0 0.00 0.09 0.00 53 1017.1
20260902001842 57 281 6.0 11.0 0.00 0.09 0.00 54 1017.2
20260902000943 57 291 6.0 10.0 0.00 0.09 0.00 55 1017.1
20260901235141 57 282 7.0 12.0 0.00 0.09 0.00 53 1017.1
20260901234242 61 298 7.0 13.0 0.00 0.09 0.00 50 1017.1
20260901233341 60 292 6.0 11.0 0.00 0.09 0.00 52 1017.2
20260901230643 56 274 5.0 9.0 0.00 0.09 0.00 61 1017.4
20260901225742 55 274 5.0 9.0 0.00 0.09 0.00 62 1017.4
20260901224841 54 272 5.0 12.0 0.00 0.09 0.00 64 1017.5
20260901223942 53 265 4.0 8.0 0.00 0.09 0.00 65 1017.4
20260901223041 53 266 4.0 7.0 0.00 0.09 0.00 65 1017.2